This demonstration page uses our WeatherBlox Daily Observations layout. Learn more.

Left ArrowRight Arrow

34.16533, -84.80231

Hourly Observations for October 29, 2015

Temp ( °F °C ) Dew Point ( °F °C ) Humidity (%) Winds ( mph kmh ) Pressure ( in mb ) Visibility ( mi km ) Precip ( " mm )
12:53 am 00:53 Clear with Mist and Fog 56 13.3 56 13.3 100 100 Calm 29.81 1010 4 6 0.00 0.00
1:02 am 01:02 Clear with Mist and Fog 57 13.9 56 13.3 96 96 Calm 29.83 1010 3 4 0.00 0.00
1:10 am 01:10 Clear with Mist and Fog 56 13.3 56 13.3 100 100 Calm 29.83 1010 5 8 0.00 0.00
1:17 am 01:17 Mostly Clear with Mist and Fog 56 13.3 55 12.8 97 97 Calm 29.83 1010 3 4 0.00 0.00
1:53 am 01:53 Clear 54 12.2 53 11.7 97 97 Calm 29.81 1010 7 11 0.00 0.00
1:56 am 01:56 Mostly Clear with Mist and Fog 54 12.2 53 11.7 97 97 Calm 29.83 1010 3 4 0.00 0.00
2:14 am 02:14 Mostly Clear with Mist and Fog 54 12.2 54 12.2 100 100 Calm 29.85 1011 3 5 0.00 0.00
2:20 am 02:20 Mostly Clear with Mist and Fog 53 11.7 53 11.7 100 100 Calm 29.85 1011 2 3 0.00 0.00
2:25 am 02:25 Mostly Cloudy with Mist and Fog 53 11.7 53 11.7 100 100 Calm 29.85 1011 1 1 0.00 0.00
2:36 am 02:36 Mostly Clear with Mist and Fog 54 12.2 53 11.7 97 97 Calm 29.85 1011 1 2 0.00 0.00
2:46 am 02:46 Mostly Cloudy with Mist and Fog 53 11.7 53 11.7 100 100 Calm 29.85 1011 1 1 0.00 0.00
2:53 am 02:53 Partly Cloudy with Mist and Fog 53 11.7 52 11.1 96 96 Calm 29.81 1010 1 2 0.00 0.00
2:56 am 02:56 Mostly Clear with Mist and Fog 52 11.1 52 11.1 100 100 Calm 29.85 1011 3 5 0.00 0.00
3:53 am 03:53 Mostly Clear 52 11.1 52 11.1 100 100 Calm 29.81 1009 8 13 0.00 0.00
4:17 am 04:17 Mostly Clear with Mist and Fog 52 11.1 52 11.1 100 100 Calm 29.85 1011 2 3 0.00 0.00
4:25 am 04:25 Clear with Mist and Fog 52 11.1 52 11.1 100 100 Calm 29.85 1011 3 5 0.00 0.00
4:53 am 04:53 Mostly Cloudy 51 10.6 51 10.6 100 100 Calm 29.81 1010 10 16 0.00 0.00
5:24 am 05:24 Clear with Mist and Fog 52 11.1 51 10.6 97 97 Calm 29.85 1011 2 2 0.00 0.00
5:36 am 05:36 Mostly Cloudy with Mist and Fog 51 10.6 51 10.6 100 100 Calm 29.85 1011 3 5 0.00 0.00
5:53 am 05:53 Cloudy 53 11.7 53 11.7 100 100 Calm 29.82 1010 10 16 0.00 0.00
6:53 am 06:53 Cloudy 55 12.8 54 12.2 96 96 Calm 29.82 1010 10 16 0.00 0.00
7:53 am 07:53 Cloudy 56 13.3 56 13.3 100 100 Calm 29.83 1010 10 16 0.00 0.00
8:53 am 08:53 Cloudy 58 14.4 57 13.9 97 97 Calm 29.86 1011 10 16 0.00 0.00
9:02 am 09:02 Cloudy 58 14.4 57 13.9 97 97 Calm 29.88 1012 10 16 0.00 0.00
9:53 am 09:53 Cloudy with Mist and Fog 58 14.4 58 14.4 100 100 Calm 29.88 1012 6 10 0.05 1.27
10:53 am 10:53 Cloudy 61 16.1 60 15.6 97 97 Calm 29.89 1012 10 16 0.00 0.00
11:32 am 11:32 Mostly Cloudy 63 17.2 61 16.1 93 93 Calm 29.91 1013 10 16 0.00 0.00
11:53 am 11:53 Mostly Cloudy 64 17.8 61 16.1 90 90 SSW 3 6 29.90 1012 10 16 0.00 0.00
12:53 pm 12:53 Cloudy 64 17.8 61 16.1 90 90 Calm 29.90 1013 10 16 0.00 0.00
1:06 pm 13:06 Cloudy 65 18.3 62 16.7 90 90 Calm 29.91 1013 10 16 0.00 0.00
1:16 pm 13:16 Cloudy 66 18.9 61 16.1 84 84 Calm 29.91 1013 10 16 0.00 0.00
1:24 pm 13:24 Cloudy 66 18.9 61 16.1 84 84 Calm 29.91 1013 10 16 0.00 0.00
1:36 pm 13:36 Cloudy 65 18.3 61 16.1 87 87 Calm 29.91 1013 10 16 0.00 0.00
1:53 pm 13:53 Cloudy 67 19.4 61 16.1 81 81 Calm 29.89 1012 10 16 0.00 0.00
2:53 pm 14:53 Mostly Cloudy 69 20.6 60 15.6 73 73 SW 5 7 29.88 1012 10 16 0.00 0.00
3:53 pm 15:53 Mostly Cloudy 68 20 58 14.4 70 70 VRB 3 6 29.88 1012 10 16 0.00 0.00
4:53 pm 16:53 Mostly Sunny 71 21.7 56 13.3 59 59 VRB 3 6 29.87 1012 10 16 0.00 0.00
5:53 pm 17:53 Mostly Sunny 66 18.9 56 13.3 70 70 Calm 29.88 1012 10 16 0.00 0.00
6:53 pm 18:53 Clear 60 15.6 57 13.9 90 90 Calm 29.89 1012 10 16 0.00 0.00
7:53 pm 19:53 Clear 58 14.4 55 12.8 90 90 Calm 29.90 1013 10 16 0.00 0.00
8:53 pm 20:53 Clear 54 12.2 53 11.7 97 97 Calm 29.92 1013 10 16 0.00 0.00
9:53 pm 21:53 Clear 51 10.6 51 10.6 100 100 Calm 29.93 1014 7 11 0.00 0.00
10:53 pm 22:53 Clear 50 10 50 10 100 100 Calm 29.95 1014 7 11 0.00 0.00
11:23 pm 23:23 Clear with Mist and Fog 49 9.4 49 9.4 100 100 Calm 30.03 1017 2 3 0.00 0.00
11:28 pm 23:28 Clear with Mist and Fog 50 10 49 9.4 96 96 Calm 30.00 1016 3 5 0.00 0.00
11:38 pm 23:38 Clear with Mist and Fog 49 9.4 49 9.4 100 100 Calm 30.00 1016 2 3 0.00 0.00
11:48 pm 23:48 Clear 48 9 48 9 100 100 Calm 30.00 1016 7 11 0.00 0.00
11:53 pm 23:53 Clear 48 8.9 48 8.9 100 100 Calm 29.96 1015 7 11 0.00 0.00

Powered by AerisWeather